Content
SEND FEEDBACK

Daily
Averages
Monthly
Summary
United States of America

CAMP QUEZON, GUAM


Home > North America > United States > Guam
Elevation: 269 feet     Latitude: 13 28N     Longitude: 144 48E

WEATHER
 
SELECT A DAY
Number of Records: 213,928;   Date Range: 1/1/95 - 10/24/14
 
SHARE

PRINT THIS DATA

[ ← Previous Day ]
WEATHER ALMANAC - NOVEMBER 5, 2013
[ Next Day → ]
[ °C ]   °F
Weather ElementAverageHighLow
Temperature81.7 °F84.2 °F (2:43 pm)78.1 °F (5:54 am)
Dewpoint77.2 °F79 °F (11:54 am)73.9 °F (2:54 am)
Humidity86.2 %94 % (10:13 am)79 % (9:11 am)
Barometer29.83 in29.89 in (8:43 am)29.76 in (2:54 pm)
Wind Speed13.8 mph21.9 mph (11:40 am)
Wind Gust27.6 mph (9:11 am)
Weather ElementAverage
Visibility9.1 mi
Wind DirectionENE (70.3 °)

Weather ElementTotal
Precipitation0.33 in
Cooling Degree Days16.2 (Base 65)
Growing Degree Days31.2 (Base 50)
Averaged from 38 records on November 5, 2013
WEATHER CONDITIONS BREAKOUT
WIND DIRECTION BREAKOUT
WEATHER BY HOUR - NOVEMBER 5, 2013
[ °C ]   °F
Local TimeTemperatureDewpointHumidityBarometerVisibilityWind DirectionWind SpeedGust SpeedPrecipitationEventsConditions
1:54 AM81.0 °F75.0 °F82 %29.83 in10.0 miENE (60°)10.4 mphClear
2:54 AM80.1 °F73.9 °F81 %29.81 in10.0 miENE (60°)11.5 mphClear
3:54 AM80.1 °F75.0 °F85 %29.81 in10.0 miENE (60°)9.2 mphClear
4:54 AM80.1 °F75.9 °F87 %29.81 in10.0 miENE (60°)11.5 mph0.00 inScattered Clouds
5:54 AM78.1 °F75.9 °F93 %29.82 in10.0 miENE (60°)8.1 mph0.00 inClear
6:54 AM79.0 °F75.9 °F90 %29.84 in10.0 miNE (50°)10.4 mphClear
7:54 AM82.9 °F77.0 °F82 %29.84 in10.0 miNNE (30°)9.2 mphPartly Cloudy
8:43 AM82.4 °F78.8 °F89 %29.89 in10.0 miENE (60°)9.2 mph0.01 inMostly Cloudy
8:54 AM82.9 °F77.0 °F82 %29.87 in10.0 miNE (50°)16.1 mph23.0 mph0.01 inMostly Cloudy
9:11 AM82.4 °F75.2 °F79 %29.89 in10.0 miNE (50°)19.6 mph27.6 mph0.00 inRainLight Rain
9:54 AM82.9 °F77.0 °F82 %29.87 in10.0 miNE (50°)17.3 mph21.9 mph0.00 inPartly Cloudy
10:13 AM80.6 °F78.8 °F94 %29.88 in4.0 miENE (70°)13.8 mph26.5 mph0.01 inRainLight Rain
10:21 AM82.4 °F78.8 °F89 %29.88 in10.0 miENE (60°)16.1 mph0.01 inScattered Clouds
10:54 AM82.9 °F77.0 °F82 %29.85 in10.0 miENE (60°)20.7 mph26.5 mph0.01 inPartly Cloudy
11:29 AM82.4 °F77.0 °F84 %29.85 in8.0 miEast (80°)19.6 mph24.2 mphOvercast
11:40 AM80.6 °F78.8 °F94 %29.84 in6.0 miENE (70°)21.9 mph27.6 mph0.00 inRainRain
11:54 AM82.0 °F79.0 °F90 %29.81 in10.0 miENE (70°)12.7 mph0.00 inMostly Cloudy
12:36 PM82.4 °F77.0 °F84 %29.82 in10.0 miENE (70°)16.1 mph0.00 inRainLight Rain
12:54 PM82.9 °F78.1 °F85 %29.80 in10.0 miENE (70°)16.1 mph23.0 mph0.00 inClear
1:54 PM84.0 °F77.0 °F79 %29.77 in10.0 miENE (70°)17.3 mph25.3 mphScattered Clouds
2:43 PM84.2 °F78.8 °F84 %29.78 in10.0 miENE (70°)18.4 mph23.0 mphMostly Cloudy
2:51 PM84.2 °F78.8 °F84 %29.78 in10.0 miEast (80°)16.1 mph23.0 mphScattered Clouds
2:54 PM84.0 °F78.1 °F82 %29.76 in10.0 miENE (70°)17.3 mph23.0 mphMostly Cloudy
3:54 PM82.9 °F77.0 °F82 %29.76 in10.0 miEast (80°)17.3 mphPartly Cloudy
4:54 PM82.9 °F77.0 °F82 %29.77 in10.0 miENE (60°)13.8 mph21.9 mphPartly Cloudy
5:54 PM82.0 °F77.0 °F85 %29.78 in10.0 miENE (70°)13.8 mphPartly Cloudy
6:54 PM82.0 °F78.1 °F88 %29.80 in10.0 miEast (80°)10.4 mphScattered Clouds
7:19 PM82.4 °F77.0 °F84 %29.83 in10.0 miEast (80°)15.0 mph23.0 mphMostly Cloudy
7:36 PM82.4 °F77.0 °F84 %29.83 in10.0 miENE (70°)12.7 mph20.7 mphMostly Cloudy
7:54 PM82.0 °F77.0 °F85 %29.82 in10.0 miEast (80°)13.8 mph20.7 mphPartly Cloudy
8:54 PM82.0 °F78.1 °F88 %29.83 in10.0 miEast (80°)13.8 mph20.7 mphScattered Clouds
9:54 PM81.0 °F78.1 °F91 %29.82 in9.0 miEast (90°)11.5 mph0.06 inRainLight Rain
10:41 PM80.6 °F78.8 °F94 %29.85 in4.0 miEast (100°)10.4 mph18.4 mph0.05 inRainLight Rain
10:54 PM80.1 °F78.1 °F94 %29.83 in10.0 miEast (80°)10.4 mph0.05 inMostly Cloudy
11:17 PM80.6 °F78.8 °F94 %29.85 in10.0 miEast (80°)12.7 mph0.00 inMostly Cloudy
11:26 PM80.6 °F75.2 °F84 %29.86 in2.0 miESE (110°)13.8 mph21.9 mph0.00 inRainHeavy Rain
11:35 PM78.8 °F75.2 °F89 %29.85 in4.0 miEast (90°)9.2 mph23.0 mph0.06 inRainLight Rain
11:54 PM79.0 °F75.9 °F90 %29.83 in10.0 miEast (90°)5.8 mph0.06 inPartly Cloudy
Hourly data recorded from PGUM, located miles away from Camp Quezon, Guam







STORIES FROM OUR PARTNERS